| time (UTC) | temp F | wind direction | speed MPH | gust MPH | rain 1hr in | rain 24hr in | rain mn in | humidity % | barometer mb |
| 20260503214522 | 84 | 262 | 5.0 | 10.0 | 0.00 | 0.00 | 0.00 | 25 | 1009.3 |
| 20260503213016 | 84 | 38 | 3.0 | 11.0 | 0.00 | 0.00 | 0.00 | 26 | 1009.6 |
| 20260503211507 | 84 | 156 | 4.0 | 12.0 | 0.00 | 0.00 | 0.00 | 26 | 1009.7 |
| 20260503210006 | 84 | 260 | 4.0 | 13.0 | 0.00 | 0.00 | 0.00 | 24 | 1010.1 |
| 20260503204502 | 84 | 287 | 5.0 | 15.0 | 0.00 | 0.00 | 0.00 | 23 | 1010.4 |
| 20260503203100 | 84 | 248 | 3.0 | 16.0 | 0.00 | 0.00 | 0.00 | 25 | 1010.5 |
| 20260503201559 | 84 | 127 | 1.0 | 9.0 | 0.00 | 0.00 | 0.00 | 26 | 1010.8 |
| 20260503200056 | 84 | 211 | 5.0 | 11.0 | 0.00 | 0.00 | 0.00 | 25 | 1011.1 |
| 20260503194611 | 84 | 156 | 3.0 | 10.0 | 0.00 | 0.00 | 0.00 | 26 | 1011.4 |
| 20260503193051 | 84 | 176 | 4.0 | 11.0 | 0.00 | 0.00 | 0.00 | 27 | 1011.8 |
| 20260503191554 | 84 | 259 | 2.0 | 14.0 | 0.00 | 0.00 | 0.00 | 26 | 1011.9 |
| 20260503190050 | 84 | 169 | 3.0 | 11.0 | 0.00 | 0.00 | 0.00 | 24 | 1012.2 |
| 20260503184543 | 83 | 280 | 4.0 | 12.0 | 0.00 | 0.00 | 0.00 | 25 | 1012.2 |
| 20260503183043 | 83 | 169 | 4.0 | 12.0 | 0.00 | 0.00 | 0.00 | 25 | 1012.6 |
| 20260503181554 | 83 | 288 | 3.0 | 10.0 | 0.00 | 0.00 | 0.00 | 30 | 1012.8 |
| 20260503180046 | 83 | 243 | 3.0 | 8.0 | 0.00 | 0.00 | 0.00 | 31 | 1013.1 |
| 20260503174530 | 81 | 113 | 3.0 | 9.0 | 0.00 | 0.00 | 0.00 | 33 | 1013.4 |
| 20260503173028 | 81 | 270 | 2.0 | 8.0 | 0.00 | 0.00 | 0.00 | 34 | 1013.6 |
| 20260503171527 | 80 | 246 | 3.0 | 9.0 | 0.00 | 0.00 | 0.00 | 36 | 1013.8 |
| 20260503081542 | 58 | 153 | 0.0 | 5.0 | 0.00 | 0.00 | 0.00 | 63 | 1015.3 |
| 20260503071537 | 58 | 262 | 0.0 | 7.0 | 0.00 | 0.00 | 0.00 | 61 | 1016.1 |
| 20260503054534 | 58 | 135 | 0.0 | 3.0 | 0.00 | 0.00 | 0.00 | 57 | 1016.7 |
| 20260503053022 | 58 | 133 | 0.0 | 3.0 | 0.00 | 0.00 | 0.00 | 57 | 1016.7 |
| 20260503051519 | 59 | 134 | 0.0 | 1.0 | 0.00 | 0.00 | 0.00 | 57 | 1016.7 |
| 20260503050016 | 59 | 127 | 0.0 | 3.0 | 0.00 | 0.00 | 0.00 | 55 | 1016.6 |
| 20260503044516 | 60 | 146 | 0.0 | 4.0 | 0.00 | 0.00 | 0.00 | 55 | 1016.5 |
| 20260503043015 | 60 | 166 | 1.0 | 4.0 | 0.00 | 0.00 | 0.00 | 55 | 1016.4 |
| 20260503041515 | 60 | 143 | 0.0 | 4.0 | 0.00 | 0.00 | 0.00 | 55 | 1016.4 |
| 20260503040025 | 60 | 121 | 0.0 | 2.0 | 0.00 | 0.00 | 0.00 | 54 | 1016.4 |
| 20260503034514 | 60 | 156 | 0.0 | 4.0 | 0.00 | 0.00 | 0.00 | 54 | 1016.4 |
| 20260503033013 | 61 | 153 | 0.0 | 3.0 | 0.00 | 0.00 | 0.00 | 55 | 1016.4 |
| 20260503031513 | 61 | 156 | 0.0 | 1.0 | 0.00 | 0.00 | 0.00 | 54 | 1016.3 |
| 20260503030012 | 61 | 6 | 0.0 | 1.0 | 0.00 | 0.00 | 0.00 | 54 | 1016.2 |
| 20260503024512 | 62 | 91 | 0.0 | 1.0 | 0.00 | 0.00 | 0.00 | 55 | 1016.1 |
| 20260503023011 | 62 | 57 | 0.0 | 1.0 | 0.00 | 0.00 | 0.00 | 53 | 1016.0 |
| 20260503021516 | 62 | 60 | 0.0 | 1.0 | 0.00 | 0.00 | 0.00 | 51 | 1015.8 |
| 20260503020010 | 64 | 96 | 0.0 | 1.0 | 0.00 | 0.00 | 0.00 | 49 | 1015.6 |
| 20260503014509 | 65 | 96 | 0.0 | 1.0 | 0.00 | 0.00 | 0.00 | 47 | 1015.5 |
| 20260503013009 | 67 | 46 | 0.0 | 3.0 | 0.00 | 0.00 | 0.00 | 45 | 1015.3 |
| 20260503011523 | 68 | 52 | 1.0 | 4.0 | 0.00 | 0.00 | 0.00 | 42 | 1015.3 |
| 20260503010009 | 70 | 60 | 1.0 | 3.0 | 0.00 | 0.00 | 0.00 | 40 | 1015.2 |
| 20260503004508 | 71 | 41 | 2.0 | 3.0 | 0.00 | 0.00 | 0.00 | 40 | 1015.1 |
| 20260503003006 | 72 | 43 | 1.0 | 5.0 | 0.00 | 0.00 | 0.00 | 37 | 1015.1 |
| 20260503001506 | 72 | 46 | 1.0 | 4.0 | 0.00 | 0.00 | 0.00 | 38 | 1015.1 |
| 20260503000008 | 72 | 34 | 2.0 | 5.0 | 0.00 | 0.00 | 0.00 | 36 | 1015.2 |
| 20260502234505 | 73 | 267 | 1.0 | 5.0 | 0.00 | 0.00 | 0.00 | 37 | 1015.2 |
| 20260502233002 | 73 | 36 | 0.0 | 6.0 | 0.00 | 0.00 | 0.00 | 37 | 1015.3 |
| 20260502231603 | 74 | 49 | 1.0 | 5.0 | 0.00 | 0.00 | 0.00 | 36 | 1015.3 |
| 20260502230100 | 75 | 24 | 1.0 | 4.0 | 0.00 | 0.00 | 0.00 | 36 | 1015.3 |
| 20260502224557 | 75 | 31 | 1.0 | 6.0 | 0.00 | 0.00 | 0.00 | 35 | 1015.4 |
| 20260502223056 | 74 | 66 | 1.0 | 6.0 | 0.00 | 0.00 | 0.00 | 36 | 1015.5 |
| 20260502221554 | 75 | 41 | 1.0 | 5.0 | 0.00 | 0.00 | 0.00 | 35 | 1015.6 |
| 20260502220135 | 75 | 294 | 1.0 | 6.0 | 0.00 | 0.00 | 0.00 | 36 | 1015.6 |